Wind_Speed
19 19 19 18 17 16 15 13 12 12 10 8 6 5 5 6 6 6 6 7 8 8 9 9 9 10 10 10 10 9 9 8 7 6 4 4 3 4 4 3 2 2 1 1
21 20 20 20 19 17 16 15 14 14 13 11 9 8 7 7 6 6 6 6 6 7 8 8 8 8 9 9 9 9 8 7 6 6 5 3 3 2 2 2 1 1 0 0
22 21 22 22 21 19 17 16 16 16 15 13 12 10 9 8 7 6 6 7 6 6 6 6 6 7 7 8 7 7 7 7 6 5 5 4 3 2 1 1 0 1 1 1
23 23 24 23 23 21 19 18 18 17 16 15 14 12 11 10 9 8 8 8 7 7 7 7 6 7 7 7 7 6 7 7 6 5 4 4 3 2 2 2 2 2 2 3
24 24 24 23 23 22 22 21 19 18 17 17 16 14 11 12 11 10 10 10 9 9 8 8 7 7 7 7 7 7 7 7 6 5 4 4 3 3 3 3 3 3 3 4
24 25 24 24 23 24 23 23 22 20 18 19 17 16 14 13 12 11 12 12 11 11 10 10 9 9 9 8 8 8 8 8 8 7 6 5 5 5 5 4 4 5 5 5
24 24 24 25 24 25 25 23 20 19 19 18 18 17 15 14 13 12 13 14 14 14 14 13 12 11 11 11 10 10 10 9 8 7 8 8 7 7 7 7 7 7 7 7
23 24 25 25 25 25 25 24 22 20 19 18 20 19 16 15 14 14 14 15 16 16 16 15 14 14 13 13 13 13 12 11 10 9 10 10 9 10 9 10 10 9 9 9
24 25 25 25 26 27 26 26 24 23 22 20 20 20 19 17 15 15 16 17 16 17 17 17 17 16 15 15 15 15 14 13 12 12 12 12 12 12 12 12 12 12 12 12
25 26 25 26 27 29 29 27 26 25 23 23 21 20 19 18 17 17 17 18 17 17 18 19 19 18 17 17 16 16 16 14 14 14 15 14 15 15 14 14 15 15 15 14
26 26 26 27 28 28 29 29 29 27 26 24 22 21 21 21 19 18 18 18 18 18 19 19 18 18 18 19 19 19 19 19 19 17 17 18 17 17 17 17 17 17 17 17
27 27 26 27 28 28 29 29 29 28 29 27 25 24 24 23 22 20 19 19 19 19 19 20 20 21 21 20 20 20 20 21 22 21 20 20 20 20 21 21 20 20 19 18
28 28 27 26 27 29 30 30 30 29 29 28 25 25 26 25 24 23 22 21 20 20 21 21 21 21 22 23 23 22 22 23 23 23 22 23 23 23 24 24 23 22 22 20
30 30 29 27 27 29 30 31 31 30 30 29 28 27 28 27 26 25 24 23 22 22 22 22 22 23 23 24 25 24 24 24 25 25 24 25 25 25 25 24 23 23 23 23
31 32 32 32 31 31 31 32 32 33 32 32 30 30 31 30 29 27 26 25 24 24 24 23 23 24 24 25 25 26 26 26 26 26 26 26 27 28 28 27 25 25 25 26
33 32 32 32 32 33 34 34 34 34 34 34 34 34 32 31 31 29 28 27 26 26 26 26 26 26 26 26 27 28 28 27 27 27 27 28 29 30 29 28 27 27 27 27
33 32 32 31 32 32 34 34 34 35 35 35 35 35 33 33 32 31 30 30 29 29 28 28 29 28 28 28 29 30 31 30 29 29 29 30 30 31 31 30 28 28 28 29
34 33 33 31 32 33 33 34 35 35 35 36 36 35 35 34 33 32 32 31 30 31 31 32 32 31 31 31 31 31 32 32 32 31 31 31 32 33 32 31 30 30 30 30
34 34 34 33 33 33 34 33 33 34 35 34 35 35 35 34 34 33 32 32 32 32 32 32 32 33 33 33 32 33 33 33 33 33 33 33 33 33 33 32 32 33 34 34
33 33 34 35 34 33 33 33 33 34 35 34 34 34 33 33 33 33 33 33 34 33 33 33 33 33 33 33 34 34 35 35 35 35 36 36 36 35 34 34 33 34 35 35
33 33 34 34 34 34 35 34 33 33 34 34 34 34 33 34 34 33 33 34 34 35 35 35 35 35 35 35 36 36 36 37 37 38 39 39 38 37 37 35 35 36 37 37
33 34 34 35 35 35 35 34 34 34 34 33 32 33 33 33 33 34 35 34 35 36 36 36 36 36 36 37 37 37 38 38 39 39 40 40 39 39 38 37 36 37 38 39
34 34 35 36 36 36 34 33 32 32 32 32 32 32 32 33 33 34 35 35 35 36 36 36 37 37 37 38 38 38 39 39 39 39 40 40 39 39 38 37 37 38 39 39
33 34 34 35 35 34 33 32 32 32 32 32 32 32 33 33 33 34 34 35 35 35 36 37 38 38 39 39 39 39 39 39 39 40 40 40 39 39 39 39 38 38 38 38
31 31 32 33 33 33 32 31 31 31 31 32 32 32 32 32 33 33 35 35 36 36 37 37 38 39 40 40 40 40 40 40 40 40 40 39 39 38 39 40 39 38 37 38
29 30 31 31 31 31 31 31 30 30 30 31 31 31 31 31 32 33 34 35 35 35 35 36 37 38 38 39 39 40 40 40 39 38 38 39 39 38 38 38 39 39 39 38
Wind_Direction
237 236 238 239 236 236 239 245 251 256 259 262 266 277 296 316 328 340 356 9 13 16 22 25 29 32 33 30 29 32 36 38 41 42 50 54 61 80 101 101 115 118 113 115
238 236 238 241 240 238 244 247 250 256 259 261 265 275 282 298 307 318 334 346 356 359 4 8 13 17 20 21 22 24 26 28 31 34 33 42 55 69 73 81 92 95 58 48
236 237 238 239 241 242 245 246 247 252 261 262 264 273 276 284 285 294 305 315 324 337 342 343 350 356 3 9 12 15 14 13 16 22 25 26 36 39 46 57 44 335 298 304
234 236 239 240 241 241 243 244 246 251 259 261 262 266 270 272 274 276 283 294 301 311 318 322 325 335 341 348 352 356 0 359 358 2 357 6 18 11 360 336 320 327 319 306
237 237 239 239 239 240 241 244 246 251 256 259 261 263 262 268 272 273 272 276 283 292 299 303 303 305 314 325 331 332 337 340 339 341 336 329 333 339 333 321 311 311 317 320
238 240 240 239 237 239 241 243 246 251 255 257 261 263 261 266 267 266 267 269 271 278 285 289 289 290 294 301 309 314 320 322 323 319 317 312 308 308 305 299 294 295 301 304
239 241 241 239 238 238 241 243 249 253 254 257 260 260 259 261 260 259 261 263 263 268 275 281 283 283 286 288 294 298 302 305 309 311 308 305 300 297 300 294 285 285 290 293
240 241 241 240 239 239 239 239 241 246 250 257 262 260 261 261 260 260 260 261 265 265 267 270 272 276 278 280 284 290 290 292 295 296 296 296 295 294 296 300 289 283 285 288
239 241 243 242 240 239 240 239 241 247 251 252 256 262 263 260 260 263 262 262 264 268 266 263 264 267 272 275 277 283 284 284 287 287 286 286 288 287 287 295 287 282 282 282
239 242 243 242 241 241 240 239 239 242 249 254 260 263 261 262 263 264 265 263 261 262 263 262 264 265 267 271 275 275 279 282 281 281 277 276 280 284 285 289 284 279 279 278
239 241 243 243 241 242 242 241 240 243 246 250 256 261 262 266 264 264 266 264 260 259 260 262 264 264 267 268 269 273 278 281 285 282 276 274 279 284 286 284 280 278 278 277
240 241 242 245 244 242 244 244 243 243 247 250 252 257 262 267 266 265 262 261 257 257 257 259 261 262 264 267 269 271 275 279 282 279 278 276 275 278 282 281 275 274 276 275
241 241 243 246 248 246 244 244 244 246 249 251 252 257 262 266 265 262 261 260 259 259 256 257 259 261 262 265 269 270 275 276 280 277 275 275 277 280 282 285 276 272 272 273
242 242 240 240 242 246 245 245 246 247 249 252 252 253 260 264 263 260 260 260 260 259 258 258 259 262 263 264 267 269 272 274 279 278 277 278 279 280 282 285 277 272 272 273
243 245 244 243 243 246 248 248 247 248 250 252 255 257 258 261 260 259 260 260 259 259 259 260 261 261 262 264 266 267 269 272 274 276 276 278 279 278 278 278 276 274 273 275
244 245 246 247 247 249 250 250 251 251 252 254 255 256 259 258 258 258 258 257 257 257 258 259 261 260 262 264 264 267 271 274 272 273 275 277 278 279 279 276 274 275 274 275
244 245 246 248 249 250 251 251 253 253 254 255 256 258 259 259 256 255 255 255 255 256 257 258 260 260 262 263 265 266 268 271 273 274 274 275 278 280 276 273 274 275 276 275
244 246 247 249 250 251 254 253 253 254 256 256 257 258 258 259 256 255 254 255 254 256 257 258 259 261 263 264 266 267 269 270 270 271 273 275 278 278 275 272 272 273 274 275
243 245 248 249 253 255 255 254 255 256 256 255 256 258 257 258 256 254 254 254 254 256 257 257 258 260 262 264 265 266 267 270 271 271 272 273 275 278 274 271 271 271 273 274
244 245 248 249 251 253 257 257 256 257 257 256 255 256 257 257 256 255 254 254 254 256 257 257 258 259 262 264 265 266 267 269 271 271 272 273 274 277 275 271 271 272 273 274
244 244 247 250 252 254 255 257 258 256 257 257 256 255 255 255 255 255 255 255 254 256 258 258 258 259 261 264 265 267 267 268 269 270 272 272 273 275 276 274 273 272 273 273
245 246 247 249 252 253 256 257 257 257 257 258 258 256 254 255 255 255 256 256 256 256 258 259 260 261 262 264 266 268 269 270 271 271 272 272 272 272 274 274 274 274 272 272
244 244 246 248 251 254 254 256 258 259 259 259 257 256 254 254 256 256 257 258 259 258 258 259 260 261 263 265 266 268 269 270 271 270 271 272 271 272 273 273 273 274 274 273
245 245 247 248 250 252 255 256 256 258 258 258 258 257 255 255 256 257 258 259 260 260 260 259 260 261 263 265 266 268 269 269 270 270 271 271 271 271 272 272 273 273 273 272
246 247 248 249 250 252 253 256 257 258 257 258 259 259 259 258 257 258 258 259 260 261 261 260 261 262 264 265 265 267 268 270 270 271 272 272 272 272 272 272 273 272 271 272
245 248 249 250 250 252 254 255 256 256 256 258 260 261 261 261 260 259 258 259 260 261 261 262 263 264 264 266 267 268 271 271 271 273 272 271 272 271 271 271 272 271 272 272
Height
5896 5900 5903 5905 5906 5909 5910 5912 5913 5914 5913 5914 5914 5914 5914 5913 5912 5911 5909 5908 5907 5906 5904 5903 5901 5900 5898 5897 5895 5893 5892 5891 5890 5889 5888 5887 5887 5886 5886 5886 5886 5886 5886 5886
5893 5896 5899 5900 5902 5904 5906 5909 5910 5911 5910 5911 5912 5912 5912 5911 5911 5910 5909 5908 5907 5906 5905 5903 5902 5900 5899 5898 5896 5894 5893 5892 5891 5890 5889 5888 5887 5887 5887 5887 5886 5886 5886 5886
5889 5893 5894 5895 5898 5900 5902 5905 5907 5907 5907 5908 5909 5910 5910 5910 5909 5909 5908 5907 5907 5906 5905 5903 5902 5901 5899 5898 5897 5895 5894 5893 5892 5891 5890 5889 5888 5888 5887 5887 5887 5886 5886 5886
5884 5887 5888 5891 5893 5896 5899 5901 5902 5903 5904 5906 5907 5908 5908 5907 5907 5907 5906 5906 5905 5905 5904 5903 5902 5900 5899 5898 5897 5895 5894 5893 5892 5891 5890 5889 5889 5888 5888 5887 5886 5886 5885 5885
5879 5881 5883 5886 5889 5891 5894 5896 5897 5899 5900 5902 5903 5904 5907 5905 5904 5904 5904 5903 5903 5903 5902 5901 5900 5899 5898 5897 5896 5895 5894 5893 5891 5890 5890 5889 5889 5888 5887 5887 5886 5886 5885 5884
5875 5876 5879 5881 5884 5886 5888 5891 5893 5894 5897 5898 5899 5901 5902 5902 5901 5901 5901 5901 5900 5900 5900 5899 5898 5898 5897 5896 5895 5894 5893 5892 5891 5890 5889 5888 5888 5888 5887 5886 5885 5885 5884 5884
5870 5871 5873 5876 5879 5881 5884 5887 5890 5892 5893 5895 5895 5895 5898 5897 5897 5897 5897 5897 5897 5897 5896 5896 5896 5896 5895 5894 5893 5892 5891 5890 5889 5888 5888 5887 5887 5886 5885 5885 5884 5883 5883 5882
5865 5867 5869 5871 5874 5876 5879 5883 5886 5889 5890 5891 5889 5890 5893 5892 5892 5893 5893 5893 5893 5893 5892 5892 5892 5892 5892 5891 5890 5890 5889 5888 5887 5887 5886 5885 5885 5884 5883 5883 5882 5882 5881 5881
5860 5863 5864 5866 5868 5871 5873 5876 5881 5883 5883 5884 5885 5885 5886 5886 5888 5888 5888 5889 5889 5889 5888 5888 5888 5888 5888 5888 5888 5887 5886 5885 5885 5884 5883 5883 5882 5881 5881 5880 5880 5879 5879 5878
5854 5857 5858 5860 5862 5864 5867 5870 5873 5876 5877 5879 5881 5881 5882 5881 5882 5883 5883 5884 5884 5884 5884 5884 5883 5884 5884 5884 5884 5883 5883 5881 5881 5881 5880 5879 5879 5878 5877 5877 5876 5876 5875 5874
5847 5851 5853 5854 5855 5858 5861 5863 5865 5868 5871 5873 5876 5878 5875 5875 5876 5877 5878 5878 5879 5879 5879 5879 5879 5879 5879 5879 5879 5879 5879 5878 5877 5876 5876 5875 5875 5874 5873 5872 5872 5871 5871 5870
5840 5843 5846 5847 5849 5851 5853 5856 5858 5862 5863 5865 5868 5873 5868 5869 5870 5871 5872 5873 5873 5873 5873 5873 5873 5874 5874 5874 5874 5874 5874 5873 5872 5871 5871 5870 5870 5870 5869 5868 5867 5866 5866 5866
5833 5836 5839 5841 5843 5844 5846 5848 5851 5854 5856 5857 5861 5865 5861 5862 5863 5864 5865 5866 5867 5867 5867 5868 5868 5868 5868 5868 5868 5868 5868 5868 5866 5866 5865 5865 5864 5863 5862 5861 5860 5860 5861 5861
5824 5827 5831 5836 5837 5836 5838 5841 5843 5846 5848 5850 5852 5855 5854 5855 5856 5857 5858 5859 5860 5860 5861 5862 5862 5862 5862 5862 5862 5862 5862 5861 5860 5859 5859 5858 5858 5857 5856 5855 5855 5855 5855 5855
5815 5819 5821 5824 5827 5828 5830 5832 5835 5837 5839 5842 5845 5845 5846 5847 5848 5849 5850 5851 5852 5853 5854 5855 5856 5856 5855 5855 5855 5855 5854 5854 5854 5853 5853 5852 5852 5850 5850 5849 5849 5849 5849 5849
5806 5810 5812 5815 5818 5819 5821 5824 5826 5828 5831 5832 5834 5836 5837 5838 5839 5840 5842 5843 5845 5846 5847 5848 5848 5848 5848 5848 5848 5848 5847 5847 5846 5846 5846 5846 5845 5844 5843 5842 5842 5841 5841 5841
5797 5800 5804 5806 5809 5810 5812 5815 5817 5819 5821 5823 5824 5827 5827 5828 5830 5832 5833 5835 5836 5837 5838 5839 5840 5840 5840 5840 5840 5840 5840 5840 5839 5839 5838 5838 5837 5836 5835 5835 5834 5834 5834 5833
5788 5791 5794 5797 5799 5801 5806 5806 5807 5809 5811 5813 5814 5816 5817 5819 5821 5822 5824 5825 5827 5828 5829 5830 5831 5831 5832 5832 5832 5832 5832 5831 5831 5830 5830 5830 5829 5827 5826 5826 5826 5826 5825 5825
5779 5782 5784 5787 5789 5791 5794 5796 5798 5799 5801 5803 5804 5806 5807 5809 5810 5812 5813 5815 5817 5819 5820 5821 5822 5822 5823 5823 5823 5823 5823 5823 5822 5822 5822 5821 5820 5819 5818 5817 5817 5817 5816 5816
5769 5772 5775 5777 5780 5782 5785 5786 5787 5790 5791 5793 5794 5796 5798 5799 5801 5802 5803 5805 5807 5808 5810 5811 5812 5813 5813 5813 5813 5814 5814 5813 5813 5812 5812 5811 5811 5810 5809 5808 5808 5807 5806 5805
5760 5762 5765 5767 5769 5772 5773 5775 5778 5781 5782 5783 5784 5786 5788 5789 5791 5792 5793 5795 5796 5798 5799 5800 5802 5803 5803 5803 5804 5803 5803 5803 5803 5802 5801 5801 5800 5800 5799 5798 5797 5797 5796 5795
5750 5753 5756 5758 5760 5764 5763 5765 5768 5769 5771 5773 5774 5776 5777 5779 5780 5782 5783 5784 5786 5787 5789 5790 5791 5792 5792 5793 5793 5793 5792 5792 5792 5791 5791 5790 5789 5788 5788 5787 5786 5785 5785 5784
5740 5744 5746 5749 5752 5753 5754 5755 5757 5759 5761 5762 5764 5765 5767 5769 5770 5772 5773 5774 5775 5777 5778 5779 5780 5781 5781 5781 5781 5782 5781 5781 5780 5780 5779 5778 5777 5777 5777 5776 5775 5774 5773 5772
5731 5734 5736 5739 5741 5743 5744 5746 5747 5749 5751 5752 5754 5756 5757 5759 5760 5762 5763 5764 5765 5766 5767 5768 5769 5769 5770 5770 5770 5770 5769 5769 5768 5768 5767 5767 5766 5765 5764 5764 5763 5763 5762 5761
5723 5725 5727 5729 5732 5733 5735 5736 5738 5740 5741 5743 5744 5746 5747 5748 5750 5751 5752 5754 5754 5755 5756 5757 5757 5758 5758 5758 5758 5758 5757 5757 5756 5756 5755 5754 5754 5753 5753 5752 5751 5750 5750 5749
5714 5716 5718 5721 5723 5724 5727 5728 5729 5731 5732 5733 5735 5736 5737 5738 5740 5741 5742 5743 5744 5744 5745 5745 5745 5746 5746 5746 5746 5746 5745 5745 5744 5744 5743 5742 5742 5741 5741 5740 5740 5738 5738 5737